Weather Roundup
Issued by NWS

Home | Current Version | Previous Version | Text Only | Print | Product List | Glossary On
Versions: 1 2 3 4 5 6 7 8 9 10 11 12 13 14 15 16 17 18 19 20 21 22 23 24 25 26 27 28 29 30 31 32 33 34 35 36 37 38 39 40 41 42 43 44 45 46 47 48 49 50
000
NZUS93 KARX 032359
HRRWXR

CURRENT HOURLY OBSERVATIONS ACROSS
MUCH OF THE UPPER MISSISSIPPI VALLEY
NATIONAL WEATHER SERVICE LA CROSSE WI
600 PM CST TUE MAR 03 2015


...SOUTHEAST MINNESOTA...


CITY           SKY/WX    TMP DP  RH WIND       PRES   REMARKS
ROCHESTER      PTCLDY    19  14  81 W26       29.78R WCI   1
ROCHESTER/MAYO FAIR      22  14  72 W20G30    29.79R WCI   6
WINONA         MOCLDY    30  19  64 NW13G23   29.77R WCI  20
AUSTIN         CLEAR     18  10  73 NW22G30   29.83R WCI   0
ALBERT LEA     PTCLDY    18  10  73 NW15G25   29.85R WCI   3
DODGE CENTER   LGT SNOW  18  14  86 W22G28    29.80R WCI   0
PRESTON        PTCLDY    21  13  70 NW22G29   29.78R WCI   5
OWATONNA       PTCLDY    16  10  79 W22G29    29.86R WCI  -2
FARIBAULT      LGT SNOW  18  10  73 W17G30    29.87R WCI   2
$$

...ELSEWHERE IN MINNESOTA...


CITY           SKY/WX    TMP DP  RH WIND       PRES   REMARKS
MINNEAPOLIS    PTCLDY    18   8  65 W21       29.84R WCI   1
INTNL FALLS    CLEAR      6  -9  50 NW22G28   29.72R WCI -15
DULUTH         PTCLDY    15   0  51 NW24G30   29.64R WCI  -4
RED WING       CLEAR     25   7  46 NW14G24   29.80R WCI  13
REDWOOD FALLS  PTCLDY    12   4  70 NW17G24   29.96R WCI  -5
MANKATO        CLOUDY    16   9  73 NW24G31   29.90R WCI  -3
FAIRMONT       MOCLDY    16   5  62 NW21G29   29.90R WCI  -2
$$

...SOUTHWEST WISCONSIN...


CITY           SKY/WX    TMP DP  RH WIND       PRES   REMARKS
LA CROSSE      CLOUDY    31  21  66 W13       29.74R WCI  21
PRAIRIE DU CHI CLOUDY    31  22  69 W17       29.76R WCI  20
BOSCOBEL       CLOUDY    32  22  66 W7        29.75R WCI  26
LONE ROCK      NOT AVBL
PLATTEVILLE    CLOUDY    31  25  80 W15       29.73R WCI  20
FORT MC COY    CLOUDY    30  22  72 W10       29.71R WCI  21
VIROQUA        CLOUDY    29  23  79 W13       29.70R WCI  18
WIS DELLS      NOT AVBL
$$

...ELSEWHERE IN WISCONSIN...


CITY           SKY/WX    TMP DP  RH WIND       PRES   REMARKS
MILWAUKEE      CLOUDY    31  23  72 W15       29.69R WCI  20
MADISON        CLOUDY    30  22  72 NW6       29.71R WCI  24
GREEN BAY      CLOUDY    28  21  75 W12       29.63R WCI  18
EAU CLAIRE     MOCLDY    27  15  61 NW12      29.72R WCI  17
BLACK RVR FLS  CLOUDY    30  20  66 W9        29.71R WCI  22
MEDFORD        FLURRIES  25  19  75 NW12G23   29.61R WCI  15
WAUSAU         CLOUDY    26  19  74 W13       29.61R WCI  15
WIS RAPIDS     CLOUDY    28  19  69 W8        29.68R WCI  20
MARSHFIELD     CLOUDY    28  20  71 W14       29.65R WCI  17
RICE LAKE      CLEAR     23   8  52 W9G17     29.71R WCI  13
$$

...NORTHEAST IOWA...


CITY           SKY/WX    TMP DP  RH WIND       PRES   REMARKS
DECORAH        NOT AVBL
MASON CITY     MOCLDY    18  12  77 NW26G33   29.87R WCI  -1
CHARLES CITY   MOCLDY    23  18  80 NW17G26   29.82R WCI   9
OELWEIN        CLOUDY    27  21  80 NW20G25   29.79R WCI  13
$$

...ELSEWHERE IN IOWA...


CITY           SKY/WX    TMP DP  RH WIND       PRES   REMARKS
DES MOINES     CLOUDY    29  19  66 N20G30    29.90R WCI  16
IOWA CITY      CLOUDY    33  25  72 NW15G25   29.84R WCI  23
FORT DODGE     PTCLDY    21  12  68 NW13G20   29.93R WCI   9
$$

...NORTHERN ILLINOIS...


CITY           SKY/WX    TMP DP  RH WIND       PRES   REMARKS
CHICAGO-OHARE  CLOUDY    34  28  79 W16       29.73R WCI  24
CHICAGO-MIDWAY CLOUDY    36  30  79 W17G23    29.76R WCI  26
MOLINE         CLOUDY    33  27  78 W8        29.80R WCI  26
ROCKFORD       CLOUDY    32  25  75 NW13      29.77R WCI  22
PEORIA         CLOUDY    37  30  75 NW8       29.80R WCI  31
$$

NOTE: "FAIR" INDICATES FEW OR NO CLOUDS BELOW 12,000 FEET WITH NO
SIGNIFICANT WEATHER AND/OR OBSTRUCTIONS TO VISIBILITY. WIND
SPEEDS ARE IN MILES-PER-HOUR.



USA.gov is the U.S. government's official web portal to all federal, state and local government web resources and services.